SL-12 R/B(AUX MOTOR)

基本信息
目录编号:
32281
目录名称:
SL-12 R/B(AUX MOTOR)
国际标识:
2007-052G
轨道中心:
EARTH
物体状态:
在轨
发射日期:
2007-10-26 UTC
国别:
俄罗斯(独联体) (CIS)
轨道信息
数据来源: 国际轨道数据
星历时间: 2026-07-11T12:26:13+0800
半长轴: 16130.972km
偏心率: 0.5712494
轨道倾角: 65.085°
近地点辐角: 200.563°
升交点赤经: 290.880°
平近点角: 121.593°
近地点: 538.026km
远地点: 18967.644km
周期: 339.821分钟
每日圈数: 4.237522
详细信息
发射场:
TTMTR
轨道高度:
LEO
数据来源:
AOE Integration Group
参考系:
TEME
时间系统:
UTC
历元类型:
SGP4
2D轨道图
3D轨道图
轨道高度分析图
轨道倾角分析图
轨道综合分析图
查看轨道综合分析图